Facebook Twitter

Wetterstation Schmiedendorf

Messwerte
  Temperatur Wetter Niederschlag Feuchte Wind
Sa, 05:15 Uhr 14.6 °C feucht - 100.0 % 14 km/h SW
Sa, 05:00 Uhr 14.7 °C feucht - 100.0 % 13 km/h SW
Sa, 04:45 Uhr 14.8 °C feucht - 100.0 % 15 km/h SW
Sa, 04:30 Uhr 15.1 °C feucht - 100.0 % 14 km/h SW
Sa, 04:15 Uhr 15.3 °C feucht - 100.0 % 11 km/h SW
Sa, 04:00 Uhr 15.4 °C feucht - 100.0 % 12 km/h SW
Sa, 03:45 Uhr 15.3 °C feucht - 100.0 % 10 km/h SW
Sa, 03:30 Uhr 15.4 °C feucht - 100.0 % 9 km/h SW
Sa, 03:15 Uhr 15.4 °C feucht - 100.0 % 12 km/h W
Sa, 03:00 Uhr 15.5 °C nass - 100.0 % 17 km/h W
Sa, 02:45 Uhr 15.6 °C nass - 100.0 % 21 km/h SW
Sa, 02:30 Uhr 15.6 °C nass - 100.0 % 19 km/h SW
Sa, 02:15 Uhr 15.6 °C feucht - 100.0 % 13 km/h SW
Sa, 02:00 Uhr 15.6 °C nass - 100.0 % 6 km/h SW
Sa, 01:45 Uhr 15.7 °C nass - 100.0 % 11 km/h SW
Sa, 01:30 Uhr 15.7 °C nass - 100.0 % 10 km/h SW
Sa, 01:15 Uhr 15.8 °C nass - 100.0 % 8 km/h SW
Sa, 01:00 Uhr 16.0 °C nass - 100.0 % 6 km/h W
Sa, 00:45 Uhr 16.2 °C nass - 100.0 % 7 km/h SW
Sa, 00:30 Uhr 16.6 °C nass - 100.0 % 7 km/h SW

Alle Zeitangaben MESZ